Wind_Speed
49 49 51 51 52 53 53 54 54 54 56 56 56 57 56 57 57 57 56 55 55 55 55 54 54 53 53 54 55 55 55 55 55 54 53 53 53 53 53 54 54 54 53
49 49 50 50 51 51 53 54 55 55 55 56 56 56 56 57 57 57 58 57 56 56 56 56 55 54 54 55 55 56 57 57 57 56 56 55 55 55 55 55 55 55 55
48 48 49 49 49 50 51 52 54 55 55 55 56 56 56 56 56 57 57 58 57 57 57 57 57 57 57 56 56 56 57 57 58 58 57 57 57 57 58 58 57 57 57
47 47 48 48 48 48 49 51 52 54 55 55 56 55 55 56 56 56 57 57 56 56 57 57 57 58 58 57 57 57 57 57 57 58 58 57 57 58 58 58 58 59 58
45 45 46 48 48 48 48 49 51 52 53 53 54 54 54 55 54 55 55 55 55 56 56 56 57 57 57 56 56 57 57 57 57 56 57 58 57 57 57 57 58 58 58
44 45 46 47 48 49 48 49 50 50 51 52 53 54 54 55 55 55 54 54 55 55 55 55 56 56 55 55 56 57 57 58 58 57 57 58 57 57 56 57 58 58 59
44 44 45 46 47 48 48 48 49 49 50 51 51 52 53 54 54 55 55 55 55 54 54 54 54 53 54 55 55 56 56 56 57 57 58 57 57 58 57 57 58 59 59
43 43 44 46 47 47 47 47 48 48 49 49 50 51 52 53 54 54 54 55 55 55 55 55 55 54 54 54 55 55 54 55 57 58 58 58 58 58 58 57 58 58 58
43 43 43 44 45 46 46 46 47 48 49 49 49 50 51 52 52 53 53 54 55 55 56 55 55 55 55 55 55 54 54 55 56 56 57 58 58 58 58 58 57 57 58
43 43 43 43 43 44 45 45 46 46 47 48 49 50 51 51 52 52 53 53 54 55 55 55 55 55 55 55 55 54 54 54 55 55 56 56 56 57 57 57 57 57 58
41 42 42 43 43 43 44 44 45 46 46 47 48 49 50 50 51 51 52 52 52 53 54 54 53 54 55 56 56 55 55 54 54 54 55 55 55 55 55 55 56 56 56
39 40 40 41 42 43 43 44 44 45 46 46 47 48 49 49 50 51 52 52 53 53 53 53 53 53 53 54 55 55 55 55 54 55 54 54 54 54 54 55 55 55 55
37 38 38 39 41 42 42 42 43 45 46 46 46 46 48 48 49 50 51 52 53 53 53 53 53 53 52 52 52 54 55 54 54 53 53 52 52 52 52 53 53 53 54
35 36 36 38 39 40 42 42 43 43 45 45 44 44 45 47 48 49 49 50 51 52 53 53 52 51 51 52 52 52 53 53 53 53 52 52 52 52 52 52 52 52 53
34 34 35 35 37 39 40 41 42 43 44 44 44 44 44 45 47 48 48 49 50 51 51 51 51 51 51 51 51 52 52 52 51 51 52 52 51 51 51 51 52 52 51
33 33 33 34 35 37 38 40 41 43 44 44 44 44 44 44 45 46 46 47 48 49 49 50 50 49 49 49 49 50 51 51 51 51 51 51 50 49 49 49 49 50 50
32 32 33 33 33 35 36 38 39 40 42 43 44 44 44 43 44 44 45 46 46 47 48 48 48 48 48 48 49 49 49 50 50 50 50 49 49 48 48 48 48 48 48
31 32 33 33 33 33 34 35 36 37 39 40 42 42 43 43 43 44 44 45 46 46 46 46 47 47 47 47 47 48 48 48 48 48 48 48 48 47 47 46 46 47 47
31 31 32 32 33 32 32 33 33 34 36 37 38 40 40 41 42 42 43 44 45 45 45 45 45 45 45 46 46 46 46 46 46 46 46 46 46 46 46 46 45 45 46
30 30 30 30 31 31 32 32 32 32 33 34 36 37 38 39 39 40 41 41 42 42 43 44 44 44 44 44 44 44 44 44 44 45 45 44 44 44 45 45 44 44 44
29 29 29 29 29 30 30 30 30 31 32 33 34 35 36 37 38 38 39 39 40 40 41 42 42 43 43 42 42 42 42 42 42 43 43 44 44 43 43 43 43 43 43
28 28 28 28 28 28 28 28 29 30 30 31 32 33 34 35 36 37 37 38 38 39 39 40 41 41 41 41 41 41 41 41 41 41 41 42 42 42 42 42 41 41 42
28 27 27 27 27 28 28 29 29 29 30 30 31 31 32 32 33 34 35 35 36 36 37 37 38 38 39 38 38 38 38 38 38 39 39 39 39 39 39 39 39 40 40
27 27 27 27 28 28 28 28 29 29 29 29 30 31 31 31 31 32 32 33 33 34 34 35 35 36 36 36 36 36 37 37 37 37 38 37 37 37 38 38 38 38 39
28 28 28 29 29 29 29 29 29 29 30 30 30 30 30 30 31 31 31 31 32 32 33 33 34 35 35 35 35 35 36 36 36 36 36 36 36 37 37 38 38 38 38
29 29 29 30 30 30 30 30 30 30 30 30 30 31 31 31 31 31 31 31 31 31 32 33 33 34 34 34 35 35 35 35 36 36 35 36 36 36 37 37 37 37 38
Wind_Direction
253 253 252 253 253 252 252 252 251 250 250 250 251 250 249 249 249 248 248 248 248 248 248 250 250 250 252 253 254 255 255 256 257 257 258 258 258 259 260 260 261 261 262
254 254 253 253 253 252 251 251 251 251 250 249 249 249 249 249 249 248 248 249 249 249 250 250 249 250 251 253 254 255 256 257 257 257 258 258 259 259 260 261 261 262 262
256 256 254 253 253 253 252 251 251 250 249 249 249 249 248 248 248 248 248 249 249 249 250 250 250 252 252 253 254 255 256 257 258 258 258 259 259 260 261 261 262 262 263
257 257 256 255 254 254 253 252 251 250 249 249 248 248 248 248 247 248 248 248 248 249 250 251 252 253 253 254 255 256 257 257 258 258 259 260 260 261 261 262 262 262 263
258 258 257 255 254 254 253 252 252 251 250 249 248 247 248 247 247 247 247 247 248 248 250 251 252 253 254 255 256 256 256 257 258 259 260 260 261 261 262 262 263 262 263
259 258 258 257 255 254 254 253 252 251 250 249 249 248 248 247 247 247 247 248 248 248 249 250 252 253 254 256 257 258 258 259 259 260 260 261 261 262 262 263 263 262 262
261 260 259 258 257 256 254 253 252 251 250 249 250 249 248 247 247 247 247 247 248 249 250 251 253 255 256 257 258 259 259 260 261 262 262 262 262 262 263 263 263 263 263
262 261 260 259 259 258 255 254 253 251 251 251 250 249 249 248 248 248 248 249 249 250 251 252 254 255 257 257 258 259 260 261 261 262 262 262 262 263 262 262 263 263 263
263 262 261 261 259 258 255 254 253 253 253 252 251 250 249 249 249 248 249 250 250 250 251 252 254 255 256 257 258 259 260 260 261 262 263 262 262 262 262 262 263 263 263
264 262 261 261 259 257 255 254 253 254 255 254 253 251 250 249 249 250 251 251 251 250 252 253 254 255 255 256 257 259 260 260 261 262 262 262 262 262 262 262 262 263 264
265 263 262 260 258 256 255 254 254 255 255 254 253 251 250 249 251 252 252 252 252 252 252 253 255 255 255 256 258 259 260 261 262 263 263 263 263 262 262 261 261 262 263
267 264 262 259 257 256 256 256 255 255 254 253 253 251 251 251 253 254 254 253 253 253 253 254 256 256 257 258 259 260 260 261 263 264 263 263 263 263 262 262 262 263 263
268 266 263 260 259 256 256 257 257 255 254 254 253 253 253 252 253 253 254 254 255 255 255 256 257 257 258 259 259 259 260 261 262 263 263 263 263 263 262 263 263 264 264
270 269 266 262 260 258 257 257 258 257 256 255 254 254 254 254 253 253 253 253 254 255 255 256 257 257 257 258 259 260 260 261 262 262 262 262 262 263 263 263 264 264 264
271 270 268 265 262 260 259 258 258 259 258 257 256 256 256 254 254 253 253 253 253 254 255 256 257 257 258 258 259 260 260 261 262 262 262 262 262 263 263 263 264 264 264
271 270 269 266 264 262 260 260 260 260 258 257 256 256 255 255 254 254 255 254 254 254 255 255 257 258 258 258 258 259 260 260 261 262 262 262 262 262 263 263 264 264 264
270 270 269 268 266 264 263 262 261 261 260 258 257 256 255 255 255 255 255 255 255 256 256 256 257 258 258 258 258 259 260 260 261 261 262 262 261 262 262 263 263 264 265
272 271 271 269 267 266 265 264 263 261 260 259 258 256 254 254 255 256 255 255 256 257 257 257 257 258 259 259 260 260 260 260 260 261 261 260 260 261 262 263 264 264 265
274 273 272 270 268 266 265 265 265 263 260 259 258 257 255 255 256 257 257 256 256 257 257 257 258 258 259 260 260 260 260 260 260 260 260 260 261 261 261 263 264 265 265
276 275 274 271 268 266 266 266 266 265 262 259 257 257 256 256 257 258 258 258 257 258 258 258 258 258 259 259 259 259 260 260 259 259 259 259 260 261 261 262 263 265 265
277 276 275 272 270 268 267 266 265 265 263 261 258 257 257 256 257 258 259 259 259 259 260 260 259 260 260 260 259 260 259 258 258 257 258 258 260 261 261 262 263 263 264
278 277 275 273 271 270 269 267 267 266 265 263 261 260 259 258 258 258 258 259 260 260 261 261 260 260 260 260 260 260 259 258 257 258 258 258 260 261 261 262 263 263 264
279 277 275 273 272 271 271 270 269 268 267 265 263 262 261 260 260 259 259 260 261 261 261 261 260 259 258 258 259 259 258 257 256 256 257 257 259 260 261 261 261 262 264
278 277 275 274 274 273 273 272 271 269 268 266 264 262 262 261 261 261 261 262 262 262 261 260 259 258 257 257 257 257 256 255 255 255 256 255 257 260 261 262 263 263 264
279 277 276 275 274 274 273 273 273 271 269 266 264 263 262 262 262 263 263 262 262 261 260 259 258 258 256 256 256 255 255 254 254 255 256 256 258 259 261 262 264 264 264
280 279 278 276 275 274 273 273 272 271 270 267 265 263 263 262 262 263 263 263 263 262 261 260 259 259 257 256 256 255 255 254 254 255 257 257 258 259 260 262 263 264 265
Height
5567 5569 5571 5574 5577 5579 5582 5585 5588 5591 5594 5598 5601 5604 5608 5612 5616 5620 5624 5628 5632 5637 5641 5645 5649 5652 5655 5658 5661 5664 5667 5670 5673 5677 5679 5680 5683 5685 5687 5689 5691 5692 5694
5553 5555 5557 5560 5562 5564 5567 5570 5573 5576 5580 5583 5587 5590 5594 5598 5602 5606 5610 5615 5619 5623 5627 5631 5635 5638 5641 5644 5647 5650 5652 5655 5658 5661 5664 5666 5668 5669 5672 5674 5676 5677 5679
5540 5542 5543 5545 5548 5550 5553 5556 5559 5562 5565 5569 5572 5576 5580 5584 5588 5592 5596 5600 5605 5609 5613 5617 5620 5623 5627 5630 5633 5635 5637 5640 5642 5645 5648 5650 5652 5654 5656 5658 5660 5662 5664
5527 5528 5530 5532 5534 5537 5539 5541 5544 5547 5550 5554 5558 5562 5566 5570 5574 5578 5582 5586 5590 5595 5599 5602 5606 5609 5612 5615 5618 5620 5622 5624 5627 5629 5632 5634 5636 5638 5640 5642 5644 5646 5648
5514 5515 5517 5519 5521 5523 5525 5528 5530 5533 5536 5540 5543 5547 5551 5555 5559 5564 5568 5571 5576 5580 5584 5587 5591 5594 5597 5600 5603 5605 5607 5609 5611 5613 5616 5618 5620 5622 5624 5626 5628 5630 5632
5501 5503 5504 5506 5508 5510 5512 5514 5516 5519 5522 5525 5529 5533 5537 5541 5545 5549 5553 5557 5561 5566 5569 5573 5576 5579 5582 5584 5587 5590 5592 5594 5596 5598 5601 5603 5605 5606 5608 5610 5612 5614 5617
5489 5490 5491 5493 5494 5496 5498 5501 5503 5506 5509 5512 5515 5519 5523 5527 5531 5535 5539 5543 5547 5551 5555 5558 5561 5564 5567 5570 5572 5574 5576 5578 5580 5583 5585 5587 5589 5591 5592 5594 5595 5597 5600
5476 5477 5478 5480 5481 5483 5485 5487 5490 5493 5496 5499 5502 5506 5509 5513 5517 5520 5524 5529 5532 5536 5540 5543 5546 5549 5552 5555 5557 5559 5561 5563 5565 5567 5569 5571 5572 5573 5575 5577 5579 5581 5583
5464 5464 5465 5466 5467 5469 5472 5475 5477 5480 5483 5486 5489 5493 5496 5500 5503 5506 5509 5513 5517 5521 5525 5528 5531 5535 5538 5540 5542 5545 5546 5548 5549 5550 5552 5554 5555 5556 5558 5560 5562 5564 5566
5451 5452 5452 5453 5454 5456 5459 5462 5464 5467 5469 5472 5476 5479 5482 5486 5489 5492 5495 5499 5503 5507 5511 5514 5517 5520 5522 5524 5526 5529 5531 5533 5534 5535 5536 5537 5539 5540 5541 5543 5545 5547 5548
5438 5439 5440 5441 5442 5444 5446 5449 5451 5454 5457 5460 5463 5466 5469 5473 5476 5478 5481 5484 5488 5492 5496 5499 5502 5504 5506 5508 5511 5513 5515 5517 5518 5520 5520 5521 5523 5524 5525 5527 5528 5530 5532
5426 5426 5427 5428 5430 5432 5434 5437 5439 5441 5444 5447 5449 5452 5455 5459 5461 5464 5467 5470 5474 5477 5481 5484 5486 5488 5490 5493 5495 5497 5499 5501 5502 5504 5505 5506 5507 5509 5510 5511 5512 5514 5515
5414 5414 5415 5416 5417 5419 5421 5424 5426 5429 5432 5434 5437 5439 5442 5445 5448 5450 5453 5456 5459 5462 5466 5469 5471 5473 5475 5477 5479 5481 5483 5485 5486 5488 5490 5491 5492 5494 5495 5496 5497 5498 5499
5403 5403 5403 5404 5406 5407 5410 5412 5414 5416 5419 5421 5424 5426 5429 5432 5434 5437 5439 5443 5445 5448 5451 5453 5456 5458 5460 5462 5464 5466 5468 5470 5471 5473 5474 5476 5477 5478 5480 5480 5482 5483 5484
5392 5392 5392 5393 5394 5395 5397 5399 5401 5403 5405 5408 5411 5413 5416 5419 5421 5424 5426 5429 5432 5434 5436 5439 5441 5444 5446 5447 5449 5451 5453 5454 5456 5458 5459 5461 5462 5464 5465 5466 5466 5467 5469
5382 5382 5382 5382 5383 5384 5385 5387 5388 5390 5393 5395 5397 5400 5403 5405 5408 5410 5412 5415 5417 5419 5422 5425 5427 5429 5431 5433 5435 5436 5438 5439 5441 5442 5444 5446 5447 5449 5450 5451 5452 5453 5454
5372 5371 5371 5371 5372 5372 5373 5375 5376 5378 5380 5382 5384 5386 5389 5392 5394 5396 5399 5401 5403 5405 5407 5410 5412 5414 5417 5418 5420 5422 5423 5425 5426 5428 5429 5431 5433 5434 5435 5436 5438 5439 5440
5362 5362 5361 5361 5361 5362 5363 5363 5365 5366 5368 5369 5371 5373 5376 5378 5381 5383 5385 5387 5389 5391 5394 5396 5399 5400 5402 5404 5406 5407 5408 5410 5411 5413 5415 5416 5418 5420 5421 5423 5424 5425 5427
5352 5352 5351 5351 5351 5351 5352 5353 5353 5354 5356 5357 5359 5361 5363 5365 5367 5370 5371 5373 5376 5378 5381 5383 5385 5387 5388 5390 5392 5393 5394 5396 5397 5399 5401 5402 5404 5406 5408 5409 5410 5412 5413
5343 5342 5341 5341 5341 5341 5342 5342 5343 5343 5344 5346 5347 5349 5351 5353 5355 5357 5358 5361 5363 5365 5367 5369 5371 5373 5374 5376 5378 5379 5381 5382 5384 5386 5387 5389 5391 5393 5394 5396 5397 5399 5400
5333 5332 5331 5331 5331 5331 5331 5332 5332 5333 5334 5334 5336 5337 5338 5340 5342 5344 5346 5348 5350 5352 5354 5356 5357 5359 5361 5363 5364 5366 5367 5369 5371 5372 5374 5376 5378 5380 5381 5383 5384 5386 5387
5324 5323 5322 5322 5322 5322 5322 5322 5322 5323 5323 5324 5325 5325 5326 5328 5330 5332 5334 5336 5337 5339 5341 5343 5344 5346 5348 5349 5351 5353 5354 5356 5358 5360 5361 5363 5365 5367 5368 5370 5371 5372 5374
5315 5314 5313 5313 5313 5312 5312 5312 5312 5313 5313 5313 5314 5315 5316 5317 5319 5320 5322 5324 5325 5327 5328 5330 5331 5333 5335 5337 5338 5340 5342 5344 5345 5347 5349 5351 5353 5354 5356 5357 5359 5360 5361
5305 5305 5304 5304 5303 5303 5302 5302 5302 5303 5303 5303 5304 5304 5305 5307 5308 5309 5310 5312 5313 5315 5316 5318 5319 5321 5323 5325 5326 5328 5330 5331 5333 5335 5337 5339 5341 5343 5344 5346 5347 5348 5349
5296 5295 5294 5294 5293 5293 5293 5292 5292 5292 5292 5293 5293 5294 5295 5296 5298 5299 5300 5301 5302 5304 5305 5306 5308 5309 5311 5313 5314 5316 5318 5320 5322 5324 5326 5328 5330 5331 5333 5334 5335 5336 5337
5286 5285 5284 5283 5283 5283 5282 5282 5282 5282 5282 5282 5283 5284 5285 5286 5287 5288 5289 5291 5292 5293 5294 5295 5297 5298 5300 5301 5303 5305 5307 5308 5310 5312 5314 5317 5318 5320 5321 5322 5323 5324 5325